Location: Acequia del Cap
(41.7000°N, 0.6167°E)
Time: 16:33:16
(UTC+00:00)

Cosmos 2360 Rocket - Pass Details

Date: 07 August 2020
Orbit: 833 x 845 km, 71.0° (Epoch: 22 September)

Event Time Altitude Azimuth Distance (km) Brightness Sun altitude
Rises 00:28:12 0° 328° (NNW) 3,412 6.0 -31.7°
Reaches altitude 10° 00:30:49 10° 320° (NW) 2,471 5.1 -31.6°
Enters shadow 00:33:53 27° 296° (WNW) 1,559 3.7 -31.5°
